Location: *
(50.6089°N, 2.2719°E)
Time: 10:45:34
(UTC+00:00)

USA 238 - Pass Details

Date: 18 October 2019
Orbit: 1026 x 1186 km, 63.4° (Epoch: 11 November)

Event Time Altitude Azimuth Distance (km) Brightness Sun altitude
Rises 19:21:54 0° 214° (SW) 3,776 6.8 -24.2°
Reaches altitude 10° 19:24:28 10° 213° (SSW) 2,838 6.1 -24.5°
Maximum altitude 19:31:09 76° 129° (SE) 1,094 3.5 -25.6°
Enters shadow 19:33:53 39° 52° (NE) 1,548 4.2 -26.0°
